Time,TemperatureF,DewpointF,PressureIn,WindDirection,WindDirectionDegrees,WindSpeedMPH,WindSpeedGustMPH,Humidity,HourlyPrecipIn,Conditions,Clouds,dailyrainin,SolarRadiationWatts/m^2,SoftwareType,DateUTC
2013-01-17 00:02:00,71.4,68.0,30.05,South,183,4.0,6.0,89,0.00,,,0.00,0,Wunderground v.1.15,2013-01-17 05:02:00,
2013-01-17 00:04:00,71.3,67.9,30.06,South,187,4.0,8.0,89,0.00,,,0.00,0,Wunderground v.1.15,2013-01-17 05:04:00,
2013-01-17 00:06:00,71.3,67.9,30.06,South,181,4.0,8.0,89,0.00,,,0.00,0,Wunderground v.1.15,2013-01-17 05:06:00,
2013-01-17 00:12:00,71.2,67.8,30.05,South,189,5.0,5.0,89,0.00,,,0.00,0,Wunderground v.1.15,2013-01-17 05:12:00,
2013-01-17 00:18:00,71.1,67.7,30.05,South,186,4.0,7.0,89,0.00,,,0.00,0,Wunderground v.1.15,2013-01-17 05:18:00,
2013-01-17 00:24:00,71.0,67.6,30.05,South,177,5.0,5.0,89,0.00,,,0.00,0,Wunderground v.1.15,2013-01-17 05:24:00,
2013-01-17 00:30:00,70.9,67.8,30.05,SSE,165,5.0,5.0,90,0.00,,,0.00,0,Wunderground v.1.15,2013-01-17 05:30:00,
2013-01-17 00:36:00,70.8,67.7,30.05,South,180,4.0,5.0,90,0.00,,,0.00,0,Wunderground v.1.15,2013-01-17 05:36:00,
2013-01-17 00:42:00,70.9,67.8,30.05,SSE,165,5.0,5.0,90,0.00,,,0.00,0,Wunderground v.1.15,2013-01-17 05:42:00,
2013-01-17 00:48:00,70.9,67.8,30.05,SSE,163,5.0,6.0,90,0.00,,,0.00,0,Wunderground v.1.15,2013-01-17 05:48:00,
2013-01-17 00:54:00,70.9,67.8,30.05,South,174,5.0,6.0,90,0.00,,,0.00,0,Wunderground v.1.15,2013-01-17 05:54:00,
2013-01-17 01:00:00,70.8,67.7,30.05,South,175,5.0,7.0,90,0.00,,,0.00,0,Wunderground v.1.15,2013-01-17 06:00:00,
2013-01-17 01:06:00,70.8,67.7,30.05,SSW,192,5.0,7.0,90,0.00,,,0.00,0,Wunderground v.1.15,2013-01-17 06:06:00,
2013-01-17 01:12:00,70.7,67.9,30.05,South,180,5.0,5.0,91,0.00,,,0.00,0,Wunderground v.1.15,2013-01-17 06:12:00,
2013-01-17 01:18:00,70.6,67.8,30.05,SSW,194,5.0,8.0,91,0.00,,,0.00,0,Wunderground v.1.15,2013-01-17 06:18:00,
2013-01-17 01:24:00,70.5,67.7,30.05,South,180,4.0,5.0,91,0.00,,,0.00,0,Wunderground v.1.15,2013-01-17 06:24:00,
2013-01-17 01:30:00,70.4,67.6,30.05,South,191,5.0,7.0,91,0.00,,,0.00,0,Wunderground v.1.15,2013-01-17 06:30:00,
2013-01-17 01:36:00,70.4,67.6,30.05,South,171,5.0,7.0,91,0.00,,,0.00,0,Wunderground v.1.15,2013-01-17 06:36:00,
2013-01-17 01:42:00,70.4,67.6,30.05,South,182,5.0,6.0,91,0.00,,,0.00,0,Wunderground v.1.15,2013-01-17 06:42:00,
2013-01-17 01:48:00,70.3,67.5,30.05,South,175,6.0,7.0,91,0.00,,,0.00,0,Wunderground v.1.15,2013-01-17 06:48:00,
2013-01-17 01:54:00,70.3,67.9,30.05,South,188,5.0,10.0,92,0.00,,,0.00,0,Wunderground v.1.15,2013-01-17 06:54:00,
2013-01-17 02:00:00,70.3,67.9,30.05,South,180,5.0,5.0,92,0.00,,,0.00,0,Wunderground v.1.15,2013-01-17 07:00:00,
2013-01-17 02:06:00,70.2,67.8,30.05,SW,225,5.0,5.0,92,0.00,,,0.00,0,Wunderground v.1.15,2013-01-17 07:06:00,
2013-01-17 02:12:00,70.2,67.8,30.05,South,191,4.0,4.0,92,0.00,,,0.00,0,Wunderground v.1.15,2013-01-17 07:12:00,
2013-01-17 02:18:00,70.2,67.8,30.05,South,182,5.0,9.0,92,0.00,,,0.00,0,Wunderground v.1.15,2013-01-17 07:18:00,
2013-01-17 02:24:00,70.1,67.7,30.05,South,186,5.0,8.0,92,0.00,,,0.00,0,Wunderground v.1.15,2013-01-17 07:24:00,
2013-01-17 02:30:00,70.0,67.6,30.05,SSW,198,5.0,9.0,92,0.00,,,0.00,0,Wunderground v.1.15,2013-01-17 07:30:00,
2013-01-17 02:36:00,69.9,67.5,30.05,SSW,207,5.0,9.0,92,0.00,,,0.00,0,Wunderground v.1.15,2013-01-17 07:36:00,
2013-01-17 02:42:00,69.8,67.4,30.05,South,186,5.0,9.0,92,0.00,,,0.00,0,Wunderground v.1.15,2013-01-17 07:42:00,
2013-01-17 02:48:00,69.8,67.4,30.04,South,187,5.0,12.0,92,0.00,,,0.00,0,Wunderground v.1.15,2013-01-17 07:48:00,
2013-01-17 02:54:00,69.7,67.3,30.04,South,191,6.0,9.0,92,0.00,,,0.00,0,Wunderground v.1.15,2013-01-17 07:54:00,
2013-01-17 03:00:00,69.7,67.3,30.04,SW,217,5.0,5.0,92,0.00,,,0.00,0,Wunderground v.1.15,2013-01-17 08:00:00,
2013-01-17 03:06:00,69.7,67.3,30.04,SW,223,5.0,10.0,92,0.00,,,0.00,0,Wunderground v.1.15,2013-01-17 08:06:00,
2013-01-17 03:12:00,69.6,67.2,30.04,SSW,209,5.0,6.0,92,0.00,,,0.00,0,Wunderground v.1.15,2013-01-17 08:12:00,
2013-01-17 03:18:00,69.6,67.2,30.04,SSW,207,4.0,6.0,92,0.00,,,0.00,0,Wunderground v.1.15,2013-01-17 08:18:00,
2013-01-17 03:24:00,69.5,66.8,30.04,WSW,253,3.0,7.0,91,0.00,,,0.00,0,Wunderground v.1.15,2013-01-17 08:24:00,
2013-01-17 03:30:00,69.5,66.8,30.04,SW,216,4.0,4.0,91,0.00,,,0.00,0,Wunderground v.1.15,2013-01-17 08:30:00,
2013-01-17 03:36:00,69.5,66.4,30.04,SW,216,3.0,4.0,90,0.00,,,0.00,0,Wunderground v.1.15,2013-01-17 08:36:00,
2013-01-17 03:42:00,69.4,66.3,30.04,SW,217,2.0,2.0,90,0.00,,,0.00,0,Wunderground v.1.15,2013-01-17 08:42:00,
2013-01-17 03:48:00,69.3,66.2,30.04,SSW,213,1.0,2.0,90,0.00,,,0.00,0,Wunderground v.1.15,2013-01-17 08:48:00,
2013-01-17 03:54:00,69.1,66.0,30.04,SSW,213,2.0,3.0,90,0.00,,,0.00,0,Wunderground v.1.15,2013-01-17 08:54:00,
2013-01-17 04:00:00,69.0,65.9,30.04,SSW,213,2.0,2.0,90,0.00,,,0.00,0,Wunderground v.1.15,2013-01-17 09:00:00,
2013-01-17 04:06:00,68.8,65.7,30.04,SSW,213,2.0,4.0,90,0.00,,,0.00,0,Wunderground v.1.15,2013-01-17 09:06:00,
2013-01-17 04:12:00,68.8,66.1,30.05,SSW,213,3.0,5.0,91,0.00,,,0.00,0,Wunderground v.1.15,2013-01-17 09:12:00,
2013-01-17 04:18:00,68.8,65.7,30.05,SSW,213,3.0,5.0,90,0.00,,,0.00,0,Wunderground v.1.15,2013-01-17 09:18:00,
2013-01-17 04:24:00,68.7,65.6,30.05,SSW,213,1.0,2.0,90,0.00,,,0.00,0,Wunderground v.1.15,2013-01-17 09:24:00,
2013-01-17 04:30:00,68.6,65.2,30.05,SSW,212,0.0,0.0,89,0.00,,,0.00,0,Wunderground v.1.15,2013-01-17 09:30:00,
2013-01-17 04:36:00,68.6,65.2,30.05,SSW,213,0.0,0.0,89,0.00,,,0.00,0,Wunderground v.1.15,2013-01-17 09:36:00,
2013-01-17 04:42:00,68.6,65.2,30.05,SW,219,1.0,5.0,89,0.00,,,0.00,0,Wunderground v.1.15,2013-01-17 09:42:00,
2013-01-17 04:48:00,68.6,65.2,30.04,SW,219,1.0,5.0,89,0.00,,,0.00,0,Wunderground v.1.15,2013-01-17 09:48:00,
2013-01-17 04:54:00,68.6,64.9,30.05,SW,219,0.0,1.0,88,0.00,,,0.00,0,Wunderground v.1.15,2013-01-17 09:54:00,
2013-01-17 05:00:00,68.8,65.1,30.05,SW,219,0.0,0.0,88,0.00,,,0.00,0,Wunderground v.1.15,2013-01-17 10:00:00,
2013-01-17 05:06:00,68.8,65.1,30.05,SW,219,0.0,0.0,88,0.00,,,0.00,0,Wunderground v.1.15,2013-01-17 10:06:00,
2013-01-17 05:12:00,68.7,65.0,30.04,SW,219,0.0,0.0,88,0.00,,,0.00,0,Wunderground v.1.15,2013-01-17 10:12:00,
2013-01-17 05:18:00,68.6,64.9,30.04,SW,219,0.0,0.0,88,0.00,,,0.00,0,Wunderground v.1.15,2013-01-17 10:18:00,
2013-01-17 05:24:00,68.4,64.7,30.04,SW,219,0.0,0.0,88,0.00,,,0.00,0,Wunderground v.1.15,2013-01-17 10:24:00,
2013-01-17 05:30:00,68.2,64.5,30.04,SW,219,0.0,0.0,88,0.00,,,0.00,0,Wunderground v.1.15,2013-01-17 10:30:00,
2013-01-17 05:36:00,68.1,64.4,30.05,SW,219,0.0,0.0,88,0.00,,,0.00,0,Wunderground v.1.15,2013-01-17 10:36:00,
2013-01-17 05:42:00,67.9,64.2,30.05,SW,219,0.0,0.0,88,0.00,,,0.00,0,Wunderground v.1.15,2013-01-17 10:42:00,
2013-01-17 05:48:00,67.7,64.3,30.05,SW,219,0.0,0.0,89,0.00,,,0.00,0,Wunderground v.1.15,2013-01-17 10:48:00,
2013-01-17 05:54:00,67.3,63.9,30.04,SW,219,0.0,0.0,89,0.00,,,0.00,0,Wunderground v.1.15,2013-01-17 10:54:00,
2013-01-17 06:00:00,66.9,63.9,30.04,SW,219,0.0,0.0,90,0.00,,,0.00,0,Wunderground v.1.15,2013-01-17 11:00:00,
2013-01-17 06:06:00,66.6,63.9,30.04,SW,219,0.0,0.0,91,0.00,,,0.00,0,Wunderground v.1.15,2013-01-17 11:06:00,
2013-01-17 06:12:00,66.5,63.8,30.05,SW,219,0.0,0.0,91,0.00,,,0.00,0,Wunderground v.1.15,2013-01-17 11:12:00,
2013-01-17 06:18:00,66.1,63.7,30.05,SW,219,0.0,0.0,92,0.00,,,0.00,0,Wunderground v.1.15,2013-01-17 11:18:00,
2013-01-17 06:24:00,65.9,63.5,30.05,SW,219,0.0,0.0,92,0.00,,,0.00,0,Wunderground v.1.15,2013-01-17 11:24:00,
2013-01-17 06:30:00,65.6,63.2,30.05,SW,219,0.0,0.0,92,0.00,,,0.00,0,Wunderground v.1.15,2013-01-17 11:30:00,
2013-01-17 06:36:00,65.6,63.5,30.05,SW,219,0.0,0.0,93,0.00,,,0.00,0,Wunderground v.1.15,2013-01-17 11:36:00,
2013-01-17 06:42:00,65.7,63.3,30.05,SW,219,0.0,0.0,92,0.00,,,0.00,0,Wunderground v.1.15,2013-01-17 11:42:00,
2013-01-17 06:48:00,65.6,63.2,30.05,SW,219,0.0,0.0,92,0.00,,,0.00,0,Wunderground v.1.15,2013-01-17 11:48:00,
2013-01-17 06:54:00,65.5,63.1,30.06,SW,219,0.0,0.0,92,0.00,,,0.00,0,Wunderground v.1.15,2013-01-17 11:54:00,
2013-01-17 07:00:00,65.4,63.3,30.06,SW,219,0.0,0.0,93,0.00,,,0.00,0,Wunderground v.1.15,2013-01-17 12:00:00,
2013-01-17 07:06:00,65.2,63.1,30.06,SW,219,0.0,0.0,93,0.00,,,0.00,0,Wunderground v.1.15,2013-01-17 12:06:00,
2013-01-17 07:12:00,65.0,62.9,30.06,SW,219,0.0,0.0,93,0.00,,,0.00,0,Wunderground v.1.15,2013-01-17 12:12:00,
2013-01-17 07:18:00,65.0,62.9,30.06,SW,219,0.0,0.0,93,0.00,,,0.00,5,Wunderground v.1.15,2013-01-17 12:18:00,
2013-01-17 07:24:00,65.1,63.0,30.06,SW,219,0.0,0.0,93,0.00,,,0.00,9,Wunderground v.1.15,2013-01-17 12:24:00,
2013-01-17 07:30:00,65.2,63.1,30.06,SW,219,0.0,0.0,93,0.00,,,0.00,16,Wunderground v.1.15,2013-01-17 12:30:00,
2013-01-17 07:36:00,65.4,63.0,30.06,SW,219,0.0,0.0,92,0.00,,,0.00,21,Wunderground v.1.15,2013-01-17 12:36:00,
2013-01-17 07:42:00,65.6,63.2,30.06,SW,219,0.0,0.0,92,0.00,,,0.00,19,Wunderground v.1.15,2013-01-17 12:42:00,
2013-01-17 07:48:00,65.9,63.5,30.06,SW,219,0.0,0.0,92,0.00,,,0.00,32,Wunderground v.1.15,2013-01-17 12:48:00,
2013-01-17 07:54:00,66.2,63.5,30.07,SW,219,0.0,0.0,91,0.00,,,0.00,53,Wunderground v.1.15,2013-01-17 12:54:00,
2013-01-17 08:00:00,66.5,63.5,30.07,SW,219,0.0,0.0,90,0.00,,,0.00,60,Wunderground v.1.15,2013-01-17 13:00:00,
2013-01-17 08:06:00,66.5,63.8,30.07,SW,219,0.0,0.0,91,0.00,,,0.00,69,Wunderground v.1.15,2013-01-17 13:06:00,
2013-01-17 08:12:00,66.7,63.7,30.07,SW,219,0.0,0.0,90,0.00,,,0.00,56,Wunderground v.1.15,2013-01-17 13:12:00,
2013-01-17 08:18:00,66.8,63.8,30.07,SW,219,0.0,3.0,90,0.00,,,0.00,77,Wunderground v.1.15,2013-01-17 13:18:00,
2013-01-17 08:24:00,67.0,64.0,30.08,SW,219,1.0,2.0,90,0.00,,,0.00,77,Wunderground v.1.15,2013-01-17 13:24:00,
2013-01-17 08:30:00,67.1,64.1,30.08,SW,218,1.0,3.0,90,0.00,,,0.00,72,Wunderground v.1.15,2013-01-17 13:30:00,
2013-01-17 08:36:00,67.3,64.3,30.08,SW,217,1.0,4.0,90,0.00,,,0.00,63,Wunderground v.1.15,2013-01-17 13:36:00,
2013-01-17 08:42:00,67.7,65.0,30.08,SW,217,1.0,3.0,91,0.00,,,0.00,86,Wunderground v.1.15,2013-01-17 13:42:00,
2013-01-17 08:48:00,68.2,65.5,30.08,SSW,202,2.0,5.0,91,0.00,,,0.00,216,Wunderground v.1.15,2013-01-17 13:48:00,
2013-01-17 08:54:00,69.0,66.3,30.07,SSW,207,4.0,4.0,91,0.00,,,0.00,229,Wunderground v.1.15,2013-01-17 13:54:00,
2013-01-17 09:00:00,69.9,66.8,30.08,SSW,212,4.0,4.0,90,0.00,,,0.00,250,Wunderground v.1.15,2013-01-17 14:00:00,
2013-01-17 09:06:00,70.4,67.3,30.08,SSW,201,4.0,4.0,90,0.00,,,0.00,232,Wunderground v.1.15,2013-01-17 14:06:00,
2013-01-17 09:12:00,70.7,67.6,30.08,SSW,208,4.0,5.0,90,0.00,,,0.00,279,Wunderground v.1.15,2013-01-17 14:12:00,
2013-01-17 09:18:00,71.1,68.0,30.08,South,178,4.0,9.0,90,0.00,,,0.00,306,Wunderground v.1.15,2013-01-17 14:18:00,
2013-01-17 09:24:00,71.5,68.4,30.08,South,186,5.0,6.0,90,0.00,,,0.00,394,Wunderground v.1.15,2013-01-17 14:24:00,
2013-01-17 09:30:00,71.9,68.8,30.08,South,182,5.0,5.0,90,0.00,,,0.00,364,Wunderground v.1.15,2013-01-17 14:30:00,
2013-01-17 09:36:00,72.7,69.3,30.08,South,190,6.0,7.0,89,0.00,,,0.00,401,Wunderground v.1.15,2013-01-17 14:36:00,
2013-01-17 09:42:00,72.6,69.2,30.08,SW,216,6.0,6.0,89,0.00,,,0.00,172,Wunderground v.1.15,2013-01-17 14:42:00,
2013-01-17 09:48:00,73.5,69.7,30.08,SSW,205,6.0,13.0,88,0.00,,,0.00,390,Wunderground v.1.15,2013-01-17 14:48:00,
2013-01-17 09:54:00,74.0,69.9,30.08,SSW,194,6.0,7.0,87,0.00,,,0.00,369,Wunderground v.1.15,2013-01-17 14:54:00,
2013-01-17 10:00:00,74.2,69.7,30.08,SSW,198,6.0,8.0,86,0.00,,,0.00,422,Wunderground v.1.15,2013-01-17 15:00:00,
2013-01-17 10:06:00,74.6,69.8,30.07,South,184,8.0,10.0,85,0.00,,,0.00,439,Wunderground v.1.15,2013-01-17 15:06:00,
2013-01-17 10:12:00,75.1,69.6,30.07,South,182,7.0,7.0,83,0.00,,,0.00,459,Wunderground v.1.15,2013-01-17 15:12:00,
2013-01-17 10:18:00,75.7,70.2,30.07,SW,215,7.0,12.0,83,0.00,,,0.00,536,Wunderground v.1.15,2013-01-17 15:18:00,
2013-01-17 10:24:00,76.4,70.1,30.07,South,184,7.0,9.0,81,0.00,,,0.00,541,Wunderground v.1.15,2013-01-17 15:24:00,
2013-01-17 10:30:00,76.0,69.4,30.06,South,184,9.0,11.0,80,0.00,,,0.00,566,Wunderground v.1.15,2013-01-17 15:30:00,
2013-01-17 10:36:00,76.5,69.5,30.06,South,175,9.0,11.0,79,0.00,,,0.00,578,Wunderground v.1.15,2013-01-17 15:36:00,
2013-01-17 10:42:00,76.9,69.5,30.06,South,173,10.0,11.0,78,0.00,,,0.00,622,Wunderground v.1.15,2013-01-17 15:42:00,
2013-01-17 10:48:00,77.3,69.5,30.06,WSW,249,8.0,11.0,77,0.00,,,0.00,708,Wunderground v.1.15,2013-01-17 15:48:00,
2013-01-17 10:54:00,77.1,68.9,30.05,WSW,238,7.0,9.0,76,0.00,,,0.00,146,Wunderground v.1.15,2013-01-17 15:54:00,
2013-01-17 11:00:00,76.4,68.7,30.05,SSW,198,9.0,12.0,77,0.00,,,0.00,128,Wunderground v.1.15,2013-01-17 16:00:00,
2013-01-17 11:06:00,77.0,69.2,30.05,SSW,192,10.0,15.0,77,0.00,,,0.00,668,Wunderground v.1.15,2013-01-17 16:06:00,
2013-01-17 11:12:00,77.8,69.2,30.05,SSW,197,9.0,9.0,75,0.00,,,0.00,691,Wunderground v.1.15,2013-01-17 16:12:00,
2013-01-17 11:18:00,78.1,69.1,30.04,WSW,252,7.0,9.0,74,0.00,,,0.00,656,Wunderground v.1.15,2013-01-17 16:18:00,
2013-01-17 11:24:00,77.2,68.3,30.04,SSW,197,8.0,10.0,74,0.00,,,0.00,123,Wunderground v.1.15,2013-01-17 16:24:00,
2013-01-17 11:30:00,78.3,68.9,30.04,SW,217,6.0,6.0,73,0.00,,,0.00,156,Wunderground v.1.15,2013-01-17 16:30:00,
2013-01-17 11:36:00,77.6,67.9,30.03,SW,221,7.0,16.0,72,0.00,,,0.00,135,Wunderground v.1.15,2013-01-17 16:36:00,
2013-01-17 11:42:00,77.9,69.3,30.03,SW,225,9.0,10.0,75,0.00,,,0.00,670,Wunderground v.1.15,2013-01-17 16:42:00,
2013-01-17 11:48:00,78.9,69.1,30.03,South,187,8.0,10.0,72,0.00,,,0.00,708,Wunderground v.1.15,2013-01-17 16:48:00,
2013-01-17 11:54:00,78.7,68.1,30.02,SW,231,9.0,20.0,70,0.00,,,0.00,677,Wunderground v.1.15,2013-01-17 16:54:00,
2013-01-17 12:00:00,79.2,68.6,30.02,SSW,211,10.0,10.0,70,0.00,,,0.00,722,Wunderground v.1.15,2013-01-17 17:00:00,
2013-01-17 12:06:00,80.1,68.2,30.02,SW,225,8.0,10.0,67,0.00,,,0.00,795,Wunderground v.1.15,2013-01-17 17:06:00,
2013-01-17 12:12:00,80.5,68.1,30.01,SW,216,8.0,8.0,66,0.00,,,0.00,754,Wunderground v.1.15,2013-01-17 17:12:00,
2013-01-17 12:18:00,80.3,67.5,30.01,SW,229,10.0,14.0,65,0.00,,,0.00,724,Wunderground v.1.15,2013-01-17 17:18:00,
2013-01-17 12:24:00,79.4,67.9,30.00,SSW,206,10.0,14.0,68,0.00,,,0.00,724,Wunderground v.1.15,2013-01-17 17:24:00,
2013-01-17 12:30:00,79.9,68.4,30.00,SW,214,11.0,16.0,68,0.00,,,0.00,742,Wunderground v.1.15,2013-01-17 17:30:00,
2013-01-17 12:36:00,79.9,67.1,30.00,SSW,205,11.0,16.0,65,0.00,,,0.00,163,Wunderground v.1.15,2013-01-17 17:36:00,
2013-01-17 12:42:00,80.0,67.2,30.00,SSW,209,9.0,10.0,65,0.00,,,0.00,334,Wunderground v.1.15,2013-01-17 17:42:00,
2013-01-17 12:48:00,80.0,66.3,29.99,SW,231,7.0,16.0,63,0.00,,,0.00,202,Wunderground v.1.15,2013-01-17 17:48:00,
2013-01-17 12:54:00,80.3,67.0,29.99,SW,227,9.0,15.0,64,0.00,,,0.00,779,Wunderground v.1.15,2013-01-17 17:54:00,
2013-01-17 13:00:00,80.1,66.4,29.98,West,259,10.0,10.0,63,0.00,,,0.00,214,Wunderground v.1.15,2013-01-17 18:00:00,
2013-01-17 13:06:00,80.4,67.1,29.98,SW,221,11.0,17.0,64,0.00,,,0.00,135,Wunderground v.1.15,2013-01-17 18:06:00,
2013-01-17 13:12:00,80.8,67.0,29.97,SW,221,10.0,17.0,63,0.00,,,0.00,288,Wunderground v.1.15,2013-01-17 18:12:00,
2013-01-17 13:18:00,81.3,67.5,29.97,SW,219,9.0,17.0,63,0.00,,,0.00,791,Wunderground v.1.15,2013-01-17 18:18:00,
2013-01-17 13:24:00,81.4,67.6,29.96,South,175,10.0,15.0,63,0.00,,,0.00,733,Wunderground v.1.15,2013-01-17 18:24:00,
2013-01-17 13:30:00,81.2,66.9,29.96,WSW,241,12.0,12.0,62,0.00,,,0.00,710,Wunderground v.1.15,2013-01-17 18:30:00,
2013-01-17 13:36:00,81.1,66.4,29.96,SW,216,11.0,13.0,61,0.00,,,0.00,185,Wunderground v.1.15,2013-01-17 18:36:00,
2013-01-17 13:42:00,80.7,66.0,29.95,SSW,200,8.0,9.0,61,0.00,,,0.00,137,Wunderground v.1.15,2013-01-17 18:42:00,
2013-01-17 13:48:00,81.4,66.2,29.95,South,191,8.0,10.0,60,0.00,,,0.00,650,Wunderground v.1.15,2013-01-17 18:48:00,
2013-01-17 13:54:00,81.7,66.0,29.95,SW,215,10.0,17.0,59,0.00,,,0.00,631,Wunderground v.1.15,2013-01-17 18:54:00,
2013-01-17 14:00:00,81.6,65.4,29.94,SW,216,10.0,18.0,58,0.00,,,0.00,109,Wunderground v.1.15,2013-01-17 19:00:00,
2013-01-17 14:06:00,81.3,66.1,29.94,SW,225,8.0,18.0,60,0.00,,,0.00,612,Wunderground v.1.15,2013-01-17 19:06:00,
2013-01-17 14:12:00,82.0,65.8,29.94,SSW,195,6.0,6.0,58,0.00,,,0.00,93,Wunderground v.1.15,2013-01-17 19:12:00,
2013-01-17 14:18:00,81.4,65.2,29.94,SW,219,7.0,12.0,58,0.00,,,0.00,664,Wunderground v.1.15,2013-01-17 19:18:00,
2013-01-17 14:24:00,82.7,62.7,29.94,WSW,257,9.0,14.0,51,0.00,,,0.00,396,Wunderground v.1.15,2013-01-17 19:24:00,
2013-01-17 14:30:00,82.4,63.5,29.94,SW,221,10.0,12.0,53,0.00,,,0.00,211,Wunderground v.1.15,2013-01-17 19:30:00,
2013-01-17 14:36:00,81.7,63.4,29.93,SW,227,11.0,14.0,54,0.00,,,0.00,543,Wunderground v.1.15,2013-01-17 19:36:00,
2013-01-17 14:42:00,81.5,63.3,29.93,South,184,11.0,11.0,54,0.00,,,0.00,162,Wunderground v.1.15,2013-01-17 19:42:00,
2013-01-17 14:48:00,81.2,63.5,29.93,SW,225,10.0,11.0,55,0.00,,,0.00,130,Wunderground v.1.15,2013-01-17 19:48:00,
2013-01-17 14:54:00,81.2,63.5,29.93,WSW,246,8.0,10.0,55,0.00,,,0.00,160,Wunderground v.1.15,2013-01-17 19:54:00,
2013-01-17 15:00:00,80.3,67.0,29.94,WNW,284,8.0,8.0,64,0.00,,,0.00,104,Wunderground v.1.15,2013-01-17 20:00:00,
2013-01-17 15:06:00,78.8,67.3,29.94,SW,227,11.0,16.0,68,0.00,,,0.00,72,Wunderground v.1.15,2013-01-17 20:06:00,
2013-01-17 15:12:00,77.4,66.8,29.95,WNW,287,13.0,23.0,70,0.00,,,0.00,79,Wunderground v.1.15,2013-01-17 20:12:00,
2013-01-17 15:18:00,76.5,66.8,29.95,West,271,13.0,23.0,72,0.00,,,0.00,204,Wunderground v.1.15,2013-01-17 20:18:00,
2013-01-17 15:24:00,76.3,66.6,29.95,WSW,248,11.0,17.0,72,0.00,,,0.00,179,Wunderground v.1.15,2013-01-17 20:24:00,
2013-01-17 15:30:00,75.7,65.6,29.96,West,281,13.0,13.0,71,0.00,,,0.00,148,Wunderground v.1.15,2013-01-17 20:30:00,
2013-01-17 15:36:00,75.1,65.5,29.96,WNW,293,13.0,17.0,72,0.00,,,0.00,123,Wunderground v.1.15,2013-01-17 20:36:00,
2013-01-17 15:42:00,74.4,65.2,29.96,West,272,11.0,11.0,73,0.00,,,0.00,155,Wunderground v.1.15,2013-01-17 20:42:00,
2013-01-17 15:48:00,74.0,65.2,29.96,West,267,9.0,19.0,74,0.00,,,0.00,163,Wunderground v.1.15,2013-01-17 20:48:00,
2013-01-17 15:54:00,73.5,64.7,29.97,West,268,10.0,15.0,74,0.00,,,0.00,142,Wunderground v.1.15,2013-01-17 20:54:00,
2013-01-17 16:00:00,72.8,64.4,29.97,West,261,13.0,18.0,75,0.00,,,0.00,160,Wunderground v.1.15,2013-01-17 21:00:00,
2013-01-17 16:06:00,72.3,64.3,29.98,West,267,13.0,18.0,76,0.00,,,0.00,130,Wunderground v.1.15,2013-01-17 21:06:00,
2013-01-17 16:12:00,71.7,64.1,29.99,NNW,331,13.0,16.0,77,0.00,,,0.00,56,Wunderground v.1.15,2013-01-17 21:12:00,
2013-01-17 16:18:00,70.3,62.7,29.99,West,278,12.0,19.0,77,0.00,,,0.00,125,Wunderground v.1.15,2013-01-17 21:18:00,
2013-01-17 16:24:00,69.2,61.7,30.00,WNW,282,13.0,16.0,77,0.00,,,0.00,74,Wunderground v.1.15,2013-01-17 21:24:00,
2013-01-17 16:30:00,68.5,61.4,30.00,WNW,297,13.0,19.0,78,0.00,,,0.00,70,Wunderground v.1.15,2013-01-17 21:30:00,
2013-01-17 16:36:00,68.4,61.3,30.00,WNW,288,11.0,19.0,78,0.00,,,0.00,63,Wunderground v.1.15,2013-01-17 21:36:00,
2013-01-17 16:42:00,68.0,61.2,30.01,NW,305,10.0,14.0,79,0.00,,,0.00,39,Wunderground v.1.15,2013-01-17 21:42:00,
2013-01-17 16:48:00,66.9,60.2,30.02,WNW,292,13.0,20.0,79,0.00,,,0.00,28,Wunderground v.1.15,2013-01-17 21:48:00,
2013-01-17 16:54:00,65.7,59.7,30.02,West,269,13.0,18.0,81,0.00,,,0.00,30,Wunderground v.1.15,2013-01-17 21:54:00,
2013-01-17 17:00:00,65.0,59.0,30.02,NW,304,12.0,17.0,81,0.00,,,0.00,32,Wunderground v.1.15,2013-01-17 22:00:00,
2013-01-17 17:06:00,64.0,58.4,30.03,West,269,12.0,17.0,82,0.00,,,0.00,67,Wunderground v.1.15,2013-01-17 22:06:00,
2013-01-17 17:12:00,63.4,58.1,30.03,WNW,292,12.0,12.0,83,0.00,,,0.00,51,Wunderground v.1.15,2013-01-17 22:12:00,
2013-01-17 17:18:00,63.2,57.6,30.03,WSW,257,12.0,14.0,82,0.00,,,0.00,44,Wunderground v.1.15,2013-01-17 22:18:00,
2013-01-17 17:24:00,63.3,57.4,30.03,WNW,302,11.0,17.0,81,0.00,,,0.00,49,Wunderground v.1.15,2013-01-17 22:24:00,
2013-01-17 17:30:00,63.1,56.5,30.04,West,263,11.0,11.0,79,0.00,,,0.00,33,Wunderground v.1.15,2013-01-17 22:30:00,
2013-01-17 17:36:00,63.0,56.0,30.04,West,275,12.0,16.0,78,0.00,,,0.00,23,Wunderground v.1.15,2013-01-17 22:36:00,
2013-01-17 17:42:00,62.9,55.6,30.04,West,265,11.0,11.0,77,0.00,,,0.00,14,Wunderground v.1.15,2013-01-17 22:42:00,
2013-01-17 17:48:00,62.9,55.9,30.04,West,275,10.0,13.0,78,0.00,,,0.00,11,Wunderground v.1.15,2013-01-17 22:48:00,
2013-01-17 17:54:00,62.7,55.4,30.04,WSW,242,11.0,13.0,77,0.00,,,0.00,7,Wunderground v.1.15,2013-01-17 22:54:00,
2013-01-17 18:00:00,62.5,55.5,30.04,West,279,12.0,12.0,78,0.00,,,0.00,0,Wunderground v.1.15,2013-01-17 23:00:00,
2013-01-17 18:06:00,62.3,55.4,30.05,WSW,254,10.0,12.0,78,0.00,,,0.00,0,Wunderground v.1.15,2013-01-17 23:06:00,
2013-01-17 18:12:00,62.1,55.5,30.05,WSW,254,9.0,15.0,79,0.00,,,0.00,0,Wunderground v.1.15,2013-01-17 23:12:00,
2013-01-17 18:18:00,62.0,55.4,30.05,NW,315,10.0,15.0,79,0.00,,,0.00,0,Wunderground v.1.15,2013-01-17 23:18:00,
2013-01-17 18:24:00,61.8,54.9,30.06,West,262,10.0,13.0,78,0.00,,,0.00,0,Wunderground v.1.15,2013-01-17 23:24:00,
2013-01-17 18:30:00,61.6,55.0,30.06,WSW,256,9.0,9.0,79,0.00,,,0.00,0,Wunderground v.1.15,2013-01-17 23:30:00,
2013-01-17 18:36:00,61.4,54.8,30.06,NW,318,9.0,12.0,79,0.00,,,0.00,0,Wunderground v.1.15,2013-01-17 23:36:00,
2013-01-17 18:42:00,61.1,54.2,30.06,WSW,250,10.0,10.0,78,0.00,,,0.00,0,Wunderground v.1.15,2013-01-17 23:42:00,
2013-01-17 18:48:00,60.9,54.0,30.06,West,262,11.0,17.0,78,0.00,,,0.00,0,Wunderground v.1.15,2013-01-17 23:48:00,
2013-01-17 18:54:00,60.7,53.4,30.06,West,265,12.0,20.0,77,0.00,,,0.00,0,Wunderground v.1.15,2013-01-17 23:54:00,
2013-01-17 19:00:00,60.5,53.3,30.06,West,263,11.0,11.0,77,0.00,,,0.00,0,Wunderground v.1.15,2013-01-18 00:00:00,
2013-01-17 19:06:00,60.4,53.2,30.06,West,273,12.0,14.0,77,0.00,,,0.00,0,Wunderground v.1.15,2013-01-18 00:06:00,
2013-01-17 19:12:00,60.3,53.1,30.06,WSW,242,11.0,12.0,77,0.00,,,0.00,0,Wunderground v.1.15,2013-01-18 00:12:00,
2013-01-17 19:18:00,60.2,53.3,30.06,WSW,256,9.0,14.0,78,0.00,,,0.00,0,Wunderground v.1.15,2013-01-18 00:18:00,
2013-01-17 19:24:00,60.1,53.2,30.06,WSW,254,8.0,14.0,78,0.00,,,0.00,0,Wunderground v.1.15,2013-01-18 00:24:00,
2013-01-17 19:30:00,60.1,52.9,30.07,WSW,254,10.0,10.0,77,0.00,,,0.00,0,Wunderground v.1.15,2013-01-18 00:30:00,
2013-01-17 19:36:00,60.3,53.1,30.07,West,278,9.0,12.0,77,0.00,,,0.00,0,Wunderground v.1.15,2013-01-18 00:36:00,
2013-01-17 19:42:00,60.4,53.2,30.08,West,264,9.0,15.0,77,0.00,,,0.00,0,Wunderground v.1.15,2013-01-18 00:42:00,
2013-01-17 19:48:00,60.4,52.8,30.08,West,281,9.0,15.0,76,0.00,,,0.00,0,Wunderground v.1.15,2013-01-18 00:48:00,
2013-01-17 19:54:00,60.3,52.7,30.08,West,269,8.0,12.0,76,0.00,,,0.00,0,Wunderground v.1.15,2013-01-18 00:54:00,
2013-01-17 20:00:00,60.2,52.6,30.07,WNW,288,8.0,8.0,76,0.00,,,0.00,0,Wunderground v.1.15,2013-01-18 01:00:00,
2013-01-17 20:06:00,60.2,52.6,30.08,West,281,8.0,9.0,76,0.00,,,0.00,0,Wunderground v.1.15,2013-01-18 01:06:00,
2013-01-17 20:12:00,60.1,52.1,30.08,WNW,292,9.0,10.0,75,0.00,,,0.00,0,Wunderground v.1.15,2013-01-18 01:12:00,
2013-01-17 20:18:00,59.9,52.0,30.08,WNW,289,9.0,17.0,75,0.00,,,0.00,0,Wunderground v.1.15,2013-01-18 01:18:00,
2013-01-17 20:24:00,59.8,51.5,30.08,WSW,255,10.0,14.0,74,0.00,,,0.00,0,Wunderground v.1.15,2013-01-18 01:24:00,
2013-01-17 20:30:00,59.7,51.8,30.08,WSW,254,9.0,11.0,75,0.00,,,0.00,0,Wunderground v.1.15,2013-01-18 01:30:00,
2013-01-17 20:36:00,59.5,51.6,30.08,West,261,8.0,11.0,75,0.00,,,0.00,0,Wunderground v.1.15,2013-01-18 01:36:00,
2013-01-17 20:42:00,59.4,51.8,30.08,West,264,8.0,11.0,76,0.00,,,0.00,0,Wunderground v.1.15,2013-01-18 01:42:00,
2013-01-17 20:48:00,59.2,51.6,30.09,West,277,7.0,18.0,76,0.00,,,0.00,0,Wunderground v.1.15,2013-01-18 01:48:00,
2013-01-17 20:54:00,59.1,51.5,30.09,West,269,7.0,10.0,76,0.00,,,0.00,0,Wunderground v.1.15,2013-01-18 01:54:00,
2013-01-17 21:00:00,59.0,51.4,30.09,WSW,249,8.0,12.0,76,0.00,,,0.00,0,Wunderground v.1.15,2013-01-18 02:00:00,
2013-01-17 21:06:00,58.9,51.3,30.09,West,273,8.0,12.0,76,0.00,,,0.00,0,Wunderground v.1.15,2013-01-18 02:06:00,
2013-01-17 21:12:00,58.9,51.3,30.09,West,267,6.0,8.0,76,0.00,,,0.00,0,Wunderground v.1.15,2013-01-18 02:12:00,
2013-01-17 21:18:00,59.1,50.1,30.09,West,271,8.0,12.0,72,0.00,,,0.00,0,Wunderground v.1.15,2013-01-18 02:18:00,
2013-01-17 21:24:00,59.1,49.3,30.09,West,281,10.0,10.0,70,0.00,,,0.00,0,Wunderground v.1.15,2013-01-18 02:24:00,
2013-01-17 21:30:00,59.0,49.2,30.09,WSW,251,10.0,11.0,70,0.00,,,0.00,0,Wunderground v.1.15,2013-01-18 02:30:00,
2013-01-17 21:36:00,58.8,49.0,30.09,West,266,10.0,19.0,70,0.00,,,0.00,0,Wunderground v.1.15,2013-01-18 02:36:00,
2013-01-17 21:42:00,58.7,49.3,30.09,West,264,9.0,10.0,71,0.00,,,0.00,0,Wunderground v.1.15,2013-01-18 02:42:00,
2013-01-17 21:48:00,58.6,49.6,30.09,West,275,8.0,10.0,72,0.00,,,0.00,0,Wunderground v.1.15,2013-01-18 02:48:00,
2013-01-17 21:54:00,58.4,49.4,30.09,West,280,7.0,15.0,72,0.00,,,0.00,0,Wunderground v.1.15,2013-01-18 02:54:00,
2013-01-17 22:00:00,58.1,49.5,30.09,WSW,251,8.0,10.0,73,0.00,,,0.00,0,Wunderground v.1.15,2013-01-18 03:00:00,
2013-01-17 22:06:00,57.8,49.2,30.09,West,264,8.0,15.0,73,0.00,,,0.00,0,Wunderground v.1.15,2013-01-18 03:06:00,
2013-01-17 22:12:00,57.6,49.4,30.09,West,265,9.0,12.0,74,0.00,,,0.00,0,Wunderground v.1.15,2013-01-18 03:12:00,
2013-01-17 22:18:00,57.4,49.2,30.10,WNW,296,9.0,13.0,74,0.00,,,0.00,0,Wunderground v.1.15,2013-01-18 03:18:00,
2013-01-17 22:24:00,57.3,49.1,30.10,WNW,286,9.0,9.0,74,0.00,,,0.00,0,Wunderground v.1.15,2013-01-18 03:24:00,
2013-01-17 22:30:00,57.2,49.0,30.10,West,271,11.0,11.0,74,0.00,,,0.00,0,Wunderground v.1.15,2013-01-18 03:30:00,
2013-01-17 22:36:00,57.0,48.8,30.10,WNW,291,9.0,15.0,74,0.00,,,0.00,0,Wunderground v.1.15,2013-01-18 03:36:00,
2013-01-17 22:42:00,56.9,48.7,30.10,West,272,10.0,18.0,74,0.00,,,0.00,0,Wunderground v.1.15,2013-01-18 03:42:00,
2013-01-17 22:48:00,56.8,49.0,30.10,West,261,10.0,18.0,75,0.00,,,0.00,0,Wunderground v.1.15,2013-01-18 03:48:00,
2013-01-17 22:54:00,56.7,48.9,30.10,West,259,9.0,15.0,75,0.00,,,0.00,0,Wunderground v.1.15,2013-01-18 03:54:00,
2013-01-17 23:00:00,56.4,48.9,30.10,WSW,254,8.0,10.0,76,0.00,,,0.00,0,Wunderground v.1.15,2013-01-18 04:00:00,
2013-01-17 23:06:00,56.2,48.7,30.10,West,265,8.0,10.0,76,0.00,,,0.00,0,Wunderground v.1.15,2013-01-18 04:06:00,
2013-01-17 23:12:00,56.0,48.5,30.10,West,262,7.0,7.0,76,0.00,,,0.00,0,Wunderground v.1.15,2013-01-18 04:12:00,
2013-01-17 23:18:00,55.9,48.8,30.10,West,259,8.0,11.0,77,0.00,,,0.00,0,Wunderground v.1.15,2013-01-18 04:18:00,
2013-01-17 23:24:00,55.8,48.7,30.10,West,261,7.0,10.0,77,0.00,,,0.00,0,Wunderground v.1.15,2013-01-18 04:24:00,
2013-01-17 23:30:00,55.7,48.6,30.10,SW,229,8.0,8.0,77,0.00,,,0.00,0,Wunderground v.1.15,2013-01-18 04:30:00,
2013-01-17 23:36:00,55.6,48.5,30.10,West,270,9.0,9.0,77,0.00,,,0.00,0,Wunderground v.1.15,2013-01-18 04:36:00,
2013-01-17 23:42:00,55.5,48.4,30.10,West,267,8.0,8.0,77,0.00,,,0.00,0,Wunderground v.1.15,2013-01-18 04:42:00,
2013-01-17 23:48:00,55.3,48.2,30.10,WNW,286,7.0,12.0,77,0.00,,,0.00,0,Wunderground v.1.15,2013-01-18 04:48:00,
2013-01-17 23:54:00,55.3,48.2,30.10,West,281,8.0,9.0,77,0.00,,,0.00,0,Wunderground v.1.15,2013-01-18 04:54:00,